DO6HN-6 Weather Reports


time (UTC)temp
C
wind
direction
speed
KPH
gust
KPH
rain 1hr
cm
rain 24hr
cm
rain mn
cm
humidity
%
barometer
mb
20260506232913 13 0.0 0.0 0.00 0.00 0.00 8 986.9
20260506231538 13 0.0 0.0 0.00 0.00 0.00 8 986.9
20260506230158 13 0.0 0.0 0.00 0.00 0.00 9 986.9
20260506224758 13 0.0 0.0 0.00 0.00 0.00 9 986.8
20260506223348 13 0.0 0.0 0.00 0.00 0.00 9 986.8
20260506222040 14 0.0 0.0 0.00 0.00 0.00 8 986.6
20260506220822 14 0.0 0.0 0.00 0.00 0.00 8 986.5
20260506215440 15 0.0 0.0 0.00 0.00 0.00 8 986.3
20260506214023 15 0.0 0.0 0.00 0.00 0.00 8 986.1
20260506212733 15 0.0 0.0 0.00 0.00 0.00 8 986.0
20260506211318 15 0.0 0.0 0.00 0.00 0.00 8 985.9
20260506210118 15 0.0 0.0 0.00 0.00 0.00 8 985.8
20260506204653 15 0.0 0.0 0.00 0.00 0.00 8 985.7
20260506203208 15 0.0 0.0 0.00 0.00 0.00 8 985.7
20260506201748 16 0.0 0.0 0.00 0.00 0.00 8 985.6
20260506200338 16 0.0 0.0 0.00 0.00 0.00 8 985.5
20260506194918 15 0.0 0.0 0.00 0.00 0.00 8 985.3
20260506193613 15 0.0 0.0 0.00 0.00 0.00 8 985.2
20260506192158 16 0.0 0.0 0.00 0.00 0.00 8 985.1
20260506190821 16 0.0 0.0 0.00 0.00 0.00 8 984.8
20260506185353 16 0.0 0.0 0.00 0.00 0.00 8 984.7
20260506183938 16 0.0 0.0 0.00 0.00 0.00 8 984.5
20260506182442 16 0.0 0.0 0.00 0.00 0.00 8 984.4
20260506181223 16 0.0 0.0 0.00 0.00 0.00 8 984.2
20260506175958 16 0.0 0.0 0.00 0.00 0.00 8 983.9
20260506174753 16 0.0 0.0 0.00 0.00 0.00 8 983.8
20260506173318 16 0.0 0.0 0.00 0.00 0.00 8 983.8
20260506172118 15 0.0 0.0 0.00 0.00 0.00 9 983.8
20260506170913 15 0.0 0.0 0.00 0.00 0.00 9 983.8
20260506165438 15 0.0 0.0 0.00 0.00 0.00 9 983.8
20260506164102 14 0.0 0.0 0.00 0.00 0.00 9 983.9
20260506162738 15 0.0 0.0 0.00 0.00 0.00 9 983.9
20260506161253 15 0.0 0.0 0.00 0.00 0.00 9 983.9
20260506160048 15 0.0 0.0 0.00 0.00 0.00 9 983.9
20260506154608 16 0.0 0.0 0.00 0.00 0.00 8 983.8
20260506153128 15 0.0 0.0 0.00 0.00 0.00 9 983.8
20260506151658 16 0.0 0.0 0.00 0.00 0.00 9 983.7
20260506150458 15 0.0 0.0 0.00 0.00 0.00 9 983.8
20260506145213 15 0.0 0.0 0.00 0.00 0.00 9 983.6
20260506144008 15 0.0 0.0 0.00 0.00 0.00 9 983.5
20260506142533 17 0.0 0.0 0.00 0.00 0.00 7 983.3
20260506141038 20 0.0 0.0 0.00 0.00 0.00 5 982.8
20260506135543 21 0.0 0.0 0.00 0.00 0.00 5 982.7
20260506134114 21 0.0 0.0 0.00 0.00 0.00 4 982.7
20260506132808 21 0.0 0.0 0.00 0.00 0.00 4 982.5
20260506131318 22 0.0 0.0 0.00 0.00 0.00 4 982.5
20260506125828 22 0.0 0.0 0.00 0.00 0.00 4 982.4
20260506124533 22 0.0 0.0 0.00 0.00 0.00 4 982.4
20260506123118 22 0.0 0.0 0.00 0.00 0.00 4 982.5
20260506121713 23 0.0 0.0 0.00 0.00 0.00 4 982.5
20260506120358 22 0.0 0.0 0.00 0.00 0.00 4 982.5
20260506114958 22 0.0 0.0 0.00 0.00 0.00 4 982.4
20260506113458 23 0.0 0.0 0.00 0.00 0.00 4 982.5
20260506112128 22 0.0 0.0 0.00 0.00 0.00 4 982.8
20260506110833 22 0.0 0.0 0.00 0.00 0.00 4 982.9
20260506105518 22 0.0 0.0 0.00 0.00 0.00 4 983.0
20260506104118 21 0.0 0.0 0.00 0.00 0.00 4 983.0
20260506102638 21 0.0 0.0 0.00 0.00 0.00 4 983.2
20260506101358 21 0.0 0.0 0.00 0.00 0.00 4 983.3
20260506095958 20 0.0 0.0 0.00 0.00 0.00 5 983.2
20260506094718 21 0.0 0.0 0.00 0.00 0.00 4 983.1
20260506093413 20 0.0 0.0 0.00 0.00 0.00 5 983.2
20260506092028 19 0.0 0.0 0.00 0.00 0.00 5 983.1
20260506090742 20 0.0 0.0 0.00 0.00 0.00 5 983.1
20260506085343 18 0.0 0.0 0.00 0.00 0.00 5 983.3
20260506084119 18 0.0 0.0 0.00 0.00 0.00 5 983.4
20260506082807 19 0.0 0.0 0.00 0.00 0.00 5 983.4
20260506081433 18 0.0 0.0 0.00 0.00 0.00 5 983.3
20260506073248 17 0.0 0.0 0.00 0.00 0.00 5 983.0
20260506071838 18 0.0 0.0 0.00 0.00 0.00 6 983.1
20260506070602 17 0.0 0.0 0.00 0.00 0.00 6 983.1
20260506061318 17 0.0 0.0 0.00 0.00 0.00 6 983.3
20260506050418 17 0.0 0.0 0.00 0.00 0.00 6 983.5
20260506045118 17 0.0 0.0 0.00 0.00 0.00 6 983.4
20260506043623 17 0.0 0.0 0.00 0.00 0.00 6 983.3
20260506042128 17 0.0 0.0 0.00 0.00 0.00 6 983.5
20260506040822 17 0.0 0.0 0.00 0.00 0.00 6 983.5
20260506035342 17 0.0 0.0 0.00 0.00 0.00 6 983.4
20260506033843 17 0.0 0.0 0.00 0.00 0.00 6 983.4
20260506032608 17 0.0 0.0 0.00 0.00 0.00 6 983.4
20260506031113 17 0.0 0.0 0.00 0.00 0.00 6 983.5
20260506025825 17 0.0 0.0 0.00 0.00 0.00 6 983.8
20260506024528 17 0.0 0.0 0.00 0.00 0.00 6 983.9
20260506023248 17 0.0 0.0 0.00 0.00 0.00 6 984.0
20260506022038 17 0.0 0.0 0.00 0.00 0.00 6 984.0
20260506020753 18 0.0 0.0 0.00 0.00 0.00 6 983.9
20260506015358 17 0.0 0.0 0.00 0.00 0.00 6 984.0
20260506014058 17 0.0 0.0 0.00 0.00 0.00 6 984.0
20260506012713 18 0.0 0.0 0.00 0.00 0.00 6 983.9
20260506011242 17 0.0 0.0 0.00 0.00 0.00 6 984.0
20260506005808 18 0.0 0.0 0.00 0.00 0.00 6 984.0
20260506004458 18 0.0 0.0 0.00 0.00 0.00 6 984.0
20260506003238 18 0.0 0.0 0.00 0.00 0.00 6 984.3
20260506001758 18 0.0 0.0 0.00 0.00 0.00 6 984.4
20260506000333 18 0.0 0.0 0.00 0.00 0.00 6 984.6
20260505234938 18 0.0 0.0 0.00 0.00 0.00 6 984.8